[[{"header":{"parameterUnit":"m.s-1","parameterCategory":2,"la1":30.2991,"la2":30.254,"lo1":-89.0895,"lo2":-89.0444,"dy":0.0017,"dx":0.0017,"nx":28,"ny":28,"refTime":"2025-08-04T09:00:00:Z","depth":"0","parameterNumber":2,"parameterNumberName":"U-component_of_CURRENTS"},"data":[0,0,0,0,0,0,0,0,0,0,0,0,0,0,0,0,0,0,0,0,0,0,0,0,0,0,0,0,0,0,0,0,0,0,0,0,0,0,0,0,0,0,0,0,0,0,0,0,0,0,0,0,0,0,0,0,0,0,-0.2519,-0.2518,0,-0.2455,-0.2454,-0.2453,-0.2451,-0.2452,-0.2452,-0.2453,-0.2354,-0.235,-0.2347,0,0,0,0,0,0,0,0,0,0,0,0,0,-0.262,-0.2618,-0.2519,-0.2518,-0.2518,-0.2455,-0.2454,-0.2453,-0.2451,-0.2452,-0.2453,-0.2454,-0.2355,-0.2351,-0.2347,0,0,0,0,0,0,0,0,0,0,0,0,0,-0.2567,-0.2618,-0.2519,-0.2509,-0.2508,-0.2455,-0.2454,-0.2453,-0.245,-0.2452,-0.2453,-0.2454,-0.2356,-0.2351,-0.2346,-0.229,0,0,-0.2331,-0.2328,0,0,0,0,0,0,0,0,-0.257,-0.2564,-0.2512,-0.251,-0.2508,-0.2462,-0.2453,-0.2397,-0.245,-0.2472,-0.2453,-0.2455,-0.2386,-0.2379,-0.2364,-0.2285,-0.2281,-0.233,-0.2327,-0.2325,-0.2323,0,0,0,0,0,0,0,-0.2574,-0.2566,-0.2493,-0.2511,-0.2508,-0.2501,-0.2495,-0.2442,-0.2422,-0.247,-0.247,-0.2463,-0.2385,-0.2369,-0.2361,-0.228,-0.233,-0.2326,-0.2323,-0.2321,-0.2168,-0.2168,0,0,0,0,0,0,-0.2582,-0.2569,-0.2495,-0.2491,-0.2543,-0.2498,-0.2492,-0.2475,-0.2423,-0.2417,-0.2462,-0.2463,-0.2377,-0.2367,-0.2358,-0.2317,-0.2325,-0.232,-0.2317,-0.2169,-0.2168,-0.2167,0,0,0,0,0,0,-0.2584,-0.2576,-0.2498,-0.253,-0.252,-0.2495,-0.2477,-0.2473,-0.2459,-0.2417,-0.2411,-0.2452,-0.2377,-0.2365,-0.2319,-0.2312,-0.2318,-0.2313,-0.2171,-0.2169,-0.2168,-0.2216,0,0,0,0,0,0,-0.2587,-0.2577,-0.2565,-0.253,-0.2518,-0.2467,-0.2476,-0.2471,-0.2453,-0.2454,-0.2406,-0.2399,-0.2377,-0.2326,-0.2313,-0.2305,-0.2309,-0.2172,-0.217,-0.2168,-0.2216,-0.2216,-0.2217,0,0,0,0,0,-0.2591,-0.2565,-0.2564,-0.2555,-0.2503,-0.2466,-0.2459,-0.2446,-0.2452,-0.2439,-0.2415,-0.24,-0.2306,-0.2321,-0.2306,-0.2296,-0.2173,-0.217,-0.2168,-0.2215,-0.2216,-0.2217,0,0,0,0,0,0,-0.2588,-0.2562,-0.256,-0.2524,-0.25,-0.2466,-0.2448,-0.2442,-0.2412,-0.2414,-0.2383,-0.2373,-0.2329,-0.2298,-0.2316,-0.2245,-0.2237,-0.2232,-0.2278,-0.2278,-0.2279,-0.2281,-0.2305,0,0,0,0,0,-0.2585,-0.2569,-0.2539,-0.2511,-0.2498,-0.2474,-0.2457,-0.245,-0.242,-0.2409,-0.2379,-0.2343,-0.2304,-0.2283,-0.224,-0.2196,-0.221,-0.2179,-0.218,-0.2181,-0.2171,-0.2224,-0.2231,-0.216,-0.216,-0.216,0,0,-0.2575,-0.2559,-0.2548,-0.2511,-0.249,-0.2464,-0.2466,-0.2438,-0.242,-0.2399,-0.2362,-0.2337,-0.229,-0.2251,-0.2229,-0.2229,-0.2205,-0.2178,-0.2179,-0.2168,-0.2223,-0.2231,-0.2237,-0.2158,-0.2159,-0.2159,0,0,-0.2546,-0.2532,-0.251,-0.2492,-0.2465,-0.2452,-0.2446,-0.2414,-0.2406,-0.2367,-0.2353,-0.2337,-0.2261,-0.2248,-0.2226,-0.2199,-0.2205,-0.2172,-0.2181,-0.2235,-0.2242,-0.2249,-0.2276,-0.2285,-0.2178,-0.2178,-0.2178,0,-0.2537,-0.2498,-0.2496,-0.247,-0.2449,-0.2448,-0.2416,-0.2403,-0.2364,-0.2364,-0.236,-0.2305,-0.2265,-0.2245,-0.2226,-0.2204,-0.2223,-0.219,-0.2241,-0.2248,-0.2254,-0.2281,-0.229,-0.218,-0.218,-0.2179,-0.2179,0,-0.2489,-0.2462,-0.2444,-0.2418,-0.2401,-0.2369,-0.2359,-0.2352,-0.2349,-0.2347,-0.2333,-0.2306,-0.2282,-0.2264,-0.2224,-0.2236,-0.2232,-0.2241,-0.2253,-0.2265,-0.2291,-0.23,-0.2183,-0.2182,-0.2181,-0.2181,0,0,-0.2452,-0.2418,-0.2411,-0.239,-0.2369,-0.2346,-0.2336,-0.2324,-0.2338,-0.2326,-0.2344,-0.2286,-0.2302,-0.2276,-0.2255,-0.2284,-0.2331,-0.2266,-0.2268,-0.2315,-0.2434,-0.2427,-0.2436,-0.2361,-0.2362,-0.2364,-0.2436,0,-0.2409,-0.2353,-0.2354,-0.2304,-0.2266,-0.2282,-0.2279,-0.2283,-0.2301,-0.2325,-0.2339,-0.2337,-0.23,-0.23,-0.2324,-0.2319,-0.2355,-0.2309,-0.2393,-0.2395,-0.2407,-0.2446,-0.2331,-0.2385,-0.2445,-0.2446,-0.2447,0,-0.2353,-0.2322,-0.2265,-0.2246,-0.2236,-0.2221,-0.2237,-0.2235,-0.2289,-0.2312,-0.235,-0.2369,-0.2381,-0.237,-0.2412,-0.2385,-0.2399,-0.2415,-0.2419,-0.2399,-0.2404,-0.2378,-0.2399,-0.2164,-0.2461,-0.246,-0.2459,0,-0.2301,-0.2258,-0.2213,-0.2198,-0.2184,-0.2179,-0.2181,-0.2228,-0.2245,-0.2314,-0.2351,-0.2398,-0.2413,-0.2459,-0.2462,-0.2445,-0.2531,-0.2529,-0.2548,-0.2547,-0.2455,-0.2444,-0.2276,-0.2589,-0.2588,-0.2588,-0.2588,0,-0.2234,-0.2194,-0.2187,-0.215,-0.212,-0.2137,-0.2139,-0.2166,-0.2236,-0.2269,-0.2336,-0.2375,-0.2435,-0.2487,-0.25,-0.2545,-0.2573,-0.2553,-0.2574,-0.2466,-0.2455,-0.2251,-0.2241,-0.2591,-0.259,-0.259,-0.2589,0,-0.2155,-0.2158,-0.2099,-0.2084,-0.2083,-0.2057,-0.2087,-0.2108,-0.2183,-0.2237,-0.226,-0.2356,-0.2419,-0.2491,-0.2565,-0.2584,-0.2573,-0.2652,-0.2505,-0.2508,-0.2307,-0.2309,-0.2387,-0.233,-0.2694,-0.2694,-0.2694,0,-0.2091,-0.2051,-0.203,-0.2009,-0.1992,-0.1978,-0.1984,-0.2058,-0.2097,-0.2214,-0.2239,-0.2334,-0.2383,-0.2504,-0.2577,-0.2658,-0.2567,-0.2588,-0.254,-0.2278,-0.2295,-0.2357,-0.2306,-0.2432,-0.243,-0.2429,-0.2427,0,-0.1944,-0.1956,-0.1915,-0.1887,-0.1877,-0.1876,-0.1894,-0.1927,-0.2035,-0.2103,-0.2183,-0.2238,-0.2374,-0.2422,-0.2544,-0.2559,-0.2462,-0.2561,-0.2328,-0.2113,-0.2135,-0.2093,-0.2382,-0.2414,-0.2415,-0.2416,-0.2417,-0.2417,-0.1823,-0.178,-0.1755,-0.173,-0.1739,-0.1757,-0.1733,-0.1815,-0.1874,-0.198,-0.2087,-0.2176,-0.2249,-0.241,-0.2356,-0.2185,-0.2411,-0.2118,-0.2154,-0.2247,-0.215,-0.2404,-0.2441,-0.2442,-0.2443,-0.2445,-0.2446,0,-0.1631,-0.1625,-0.1594,-0.1573,-0.157,-0.162,-0.1657,-0.1651,-0.1701,-0.188,-0.1967,-0.2097,-0.2047,-0.2005,-0.1914,-0.1776,-0.1745,-0.1688,-0.1655,-0.1634,-0.1837,-0.1764,-0.1607,-0.1607,-0.1608,-0.1608,-0.1608,-0.1608,-0.1524,-0.1451,-0.1463,-0.1409,-0.1416,-0.1381,-0.1387,-0.1415,-0.1517,-0.1658,-0.1816,-0.1974,-0.1838,-0.1719,-0.1355,-0.1281,-0.1165,-0.1283,-0.1276,-0.1247,-0.1285,-0.132,-0.1233,-0.0968,-0.0968,-0.0976,-0.0976,-0.0976]},{"header":{"parameterUnit":"m.s-1","parameterCategory":2,"la1":30.2991,"la2":30.254,"lo1":-89.0895,"lo2":-89.0444,"dy":0.0017,"dx":0.0017,"nx":28,"ny":28,"refTime":"2025-08-04T09:00:00:Z","depth":"0","parameterNumber":3,"parameterNumberName":"V-component_of_CURRENTS"},"data":[0,0,0,0,0,0,0,0,0,0,0,0,0,0,0,0,0,0,0,0,0,0,0,0,0,0,0,0,0,0,0,0,0,0,0,0,0,0,0,0,0,0,0,0,0,0,0,0,0,0,0,0,0,0,0,0,0,0,-0.0242,-0.0242,0,-0.0203,-0.0202,-0.0202,-0.0178,-0.0178,-0.0178,-0.0178,-0.0123,-0.0122,-0.012,0,0,0,0,0,0,0,0,0,0,0,0,0,-0.0304,-0.0302,-0.0242,-0.0242,-0.0241,-0.0203,-0.0202,-0.0202,-0.0178,-0.0178,-0.0178,-0.0178,-0.0124,-0.0122,-0.012,0,0,0,0,0,0,0,0,0,0,0,0,0,-0.027,-0.0302,-0.0242,-0.0226,-0.0224,-0.0203,-0.0202,-0.0201,-0.0178,-0.0178,-0.0178,-0.0178,-0.0124,-0.0122,-0.012,-0.0105,0,0,-0.0113,-0.0112,0,0,0,0,0,0,0,0,-0.0272,-0.0268,-0.0229,-0.0227,-0.0225,-0.0197,-0.0204,-0.0169,-0.0178,-0.0193,-0.0178,-0.0178,-0.0148,-0.0144,-0.0134,-0.0102,-0.01,-0.0113,-0.0112,-0.0111,-0.011,0,0,0,0,0,0,0,-0.0274,-0.0269,-0.0225,-0.0229,-0.0226,-0.0224,-0.0219,-0.0197,-0.0169,-0.0192,-0.0191,-0.0189,-0.0146,-0.0136,-0.0132,-0.0099,-0.0113,-0.0111,-0.011,-0.0109,-0.007,-0.007,0,0,0,0,0,0,-0.0282,-0.0271,-0.0226,-0.0224,-0.0251,-0.0223,-0.0217,-0.0204,-0.0169,-0.0165,-0.0189,-0.0188,-0.014,-0.0135,-0.013,-0.0156,-0.0111,-0.0109,-0.0107,-0.007,-0.007,-0.007,0,0,0,0,0,0,-0.0283,-0.0278,-0.0228,-0.0249,-0.0243,-0.0222,-0.0208,-0.0204,-0.0197,-0.0168,-0.0163,-0.0188,-0.0139,-0.0133,-0.0116,-0.0152,-0.0108,-0.0106,-0.0069,-0.007,-0.007,-0.0177,0,0,0,0,0,0,-0.0285,-0.0278,-0.0272,-0.0249,-0.0242,-0.022,-0.0208,-0.0203,-0.0197,-0.0195,-0.0165,-0.0159,-0.0139,-0.012,-0.0114,-0.0148,-0.0104,-0.0069,-0.0069,-0.007,-0.0173,-0.0181,-0.0188,0,0,0,0,0,-0.0287,-0.0279,-0.0272,-0.0267,-0.0233,-0.0221,-0.0217,-0.0201,-0.0197,-0.0195,-0.0176,-0.0161,-0.012,-0.0118,-0.0111,-0.0145,-0.0069,-0.0069,-0.007,-0.017,-0.018,-0.0188,0,0,0,0,0,0,-0.0306,-0.0275,-0.0267,-0.025,-0.024,-0.0218,-0.0214,-0.0206,-0.0188,-0.0187,-0.016,-0.0153,-0.0157,-0.0124,-0.0123,-0.0132,-0.0093,-0.0093,-0.0172,-0.018,-0.0188,-0.022,-0.0102,0,0,0,0,0,-0.0307,-0.0288,-0.0269,-0.0257,-0.0253,-0.0235,-0.0229,-0.022,-0.0203,-0.0195,-0.0174,-0.0154,-0.0153,-0.0145,-0.0128,-0.0126,-0.0126,-0.0141,-0.0149,-0.0155,-0.0174,-0.0174,-0.0184,-0.0073,-0.0072,-0.0072,0,0,-0.0313,-0.0293,-0.0284,-0.026,-0.0249,-0.0257,-0.0231,-0.0224,-0.0242,-0.0192,-0.02,-0.0179,-0.0157,-0.0165,-0.0163,-0.0143,-0.0195,-0.0156,-0.0163,-0.0178,-0.0176,-0.0187,-0.0197,-0.0073,-0.0073,-0.0073,0,0,-0.0319,-0.0297,-0.0288,-0.0285,-0.0272,-0.0269,-0.0271,-0.0252,-0.0255,-0.0251,-0.0237,-0.0238,-0.0205,-0.0218,-0.0217,-0.025,-0.0236,-0.0234,-0.03,-0.03,-0.031,-0.0318,-0.0377,-0.039,-0.0236,-0.0237,-0.0237,0,-0.0334,-0.0319,-0.0288,-0.0289,-0.0303,-0.0281,-0.0301,-0.0301,-0.0282,-0.03,-0.0263,-0.0265,-0.0242,-0.0293,-0.0304,-0.0274,-0.0279,-0.0275,-0.0313,-0.0321,-0.0328,-0.0386,-0.0399,-0.0242,-0.0241,-0.0241,-0.024,0,-0.0336,-0.0337,-0.0336,-0.0336,-0.0345,-0.0355,-0.0362,-0.0373,-0.0369,-0.0372,-0.0401,-0.0369,-0.0374,-0.0369,-0.0346,-0.0398,-0.0391,-0.0328,-0.03,-0.0347,-0.0404,-0.0416,-0.0249,-0.0248,-0.0246,-0.0245,0,0,-0.035,-0.0342,-0.0345,-0.037,-0.0376,-0.0392,-0.0431,-0.047,-0.0515,-0.049,-0.0544,-0.0539,-0.0518,-0.0516,-0.0493,-0.0493,-0.0559,-0.0434,-0.0431,-0.0513,-0.0601,-0.0612,-0.0626,-0.0491,-0.0493,-0.0494,-0.0639,0,-0.0374,-0.0393,-0.0385,-0.044,-0.0464,-0.0478,-0.0527,-0.0561,-0.0574,-0.0614,-0.0609,-0.0631,-0.0577,-0.058,-0.0579,-0.0552,-0.0586,-0.0529,-0.0526,-0.0528,-0.0547,-0.0638,-0.0523,-0.0642,-0.065,-0.0651,-0.0653,0,-0.0385,-0.0405,-0.0446,-0.0516,-0.0531,-0.0565,-0.0655,-0.069,-0.0744,-0.075,-0.077,-0.0751,-0.0783,-0.07,-0.0721,-0.068,-0.0663,-0.064,-0.0643,-0.0623,-0.0559,-0.0584,-0.0662,-0.0307,-0.067,-0.0669,-0.0668,0,-0.0414,-0.046,-0.05,-0.0518,-0.0581,-0.0626,-0.0671,-0.0733,-0.0788,-0.0831,-0.0861,-0.0878,-0.0885,-0.0856,-0.083,-0.0762,-0.0856,-0.0748,-0.0768,-0.0771,-0.066,-0.065,-0.0408,-0.0781,-0.0781,-0.0781,-0.078,0,-0.0442,-0.0481,-0.052,-0.0545,-0.0639,-0.0665,-0.0768,-0.0806,-0.0875,-0.0956,-0.0927,-0.0988,-0.0911,-0.095,-0.0901,-0.091,-0.092,-0.0825,-0.081,-0.0698,-0.069,-0.0363,-0.0235,-0.0786,-0.0785,-0.0784,-0.0783,0,-0.0449,-0.0468,-0.053,-0.0607,-0.0645,-0.0707,-0.0825,-0.0904,-0.0942,-0.1042,-0.1057,-0.1084,-0.1145,-0.1131,-0.1116,-0.1013,-0.0863,-0.1015,-0.0931,-0.0903,-0.0527,-0.0413,-0.0376,-0.0253,-0.103,-0.1031,-0.1032,0,-0.0447,-0.047,-0.0566,-0.0627,-0.0662,-0.0764,-0.0853,-0.0929,-0.1012,-0.1115,-0.1176,-0.1255,-0.1356,-0.1378,-0.1252,-0.1236,-0.0983,-0.1031,-0.0863,-0.0528,-0.039,-0.0361,-0.0255,-0.0781,-0.078,-0.0779,-0.0778,0,-0.045,-0.0474,-0.0524,-0.0647,-0.0746,-0.0873,-0.0993,-0.1074,-0.1174,-0.1266,-0.14,-0.1486,-0.1515,-0.1463,-0.1403,-0.1285,-0.0767,-0.101,-0.0648,-0.0188,-0.0157,-0.0022,-0.0703,-0.077,-0.0771,-0.0771,-0.0772,-0.0772,-0.0446,-0.0485,-0.0555,-0.0677,-0.0801,-0.0963,-0.1072,-0.1225,-0.1378,-0.1568,-0.1599,-0.1754,-0.1522,-0.1442,-0.1276,-0.0666,-0.0795,-0.0386,-0.0295,-0.0312,-0.0119,-0.0832,-0.0875,-0.0877,-0.0878,-0.0879,-0.088,0,-0.045,-0.0498,-0.0598,-0.075,-0.0892,-0.0957,-0.116,-0.129,-0.1498,-0.1713,-0.1879,-0.1727,-0.1445,-0.1054,-0.0328,0.0066,0.0184,0.0311,0.0495,0.0557,-0.0024,0.008,0.0228,0.0227,0.0227,0.0227,0.0226,0.0226,-0.0454,-0.0528,-0.0585,-0.0796,-0.0911,-0.1103,-0.122,-0.1434,-0.1613,-0.1826,-0.1855,-0.188,-0.103,0.0008,0.0864,0.0968,0.1285,0.117,0.1289,0.1086,0.1034,0.0984,0.1125,0.1488,0.149,0.1909,0.1914,0.1918]}],[{"header":{"parameterUnit":"m.s-1","parameterCategory":2,"la1":30.2991,"la2":30.254,"lo1":-89.0895,"lo2":-89.0444,"dy":0.0017,"dx":0.0017,"nx":28,"ny":28,"refTime":"2025-08-04T09:00:00:Z","depth":"2","parameterNumber":2,"parameterNumberName":"U-component_of_CURRENTS"},"data":[0,0,0,0,0,0,0,0,0,0,0,0,0,0,0,0,0,0,0,0,0,0,0,0,0,0,0,0,0,0,0,0,0,0,0,0,0,0,0,0,0,0,0,0,0,0,0,0,0,0,0,0,0,0,0,0,0,0,-0.2731,-0.2734,0,-0.2901,-0.2901,-0.2902,-0.2792,-0.2789,-0.2785,-0.2782,-0.2596,-0.2595,-0.2593,0,0,0,0,0,0,0,0,0,0,0,0,0,-0.2445,-0.2449,-0.2731,-0.2734,-0.2738,-0.2901,-0.2901,-0.2902,-0.2793,-0.2789,-0.2784,-0.278,-0.2597,-0.2595,-0.2593,0,0,0,0,0,0,0,0,0,0,0,0,0,-0.2572,-0.245,-0.273,-0.2715,-0.2716,-0.2901,-0.2901,-0.2902,-0.2794,-0.2788,-0.2783,-0.2778,-0.2597,-0.2595,-0.2593,-0.2687,0,0,-0.2586,-0.2585,0,0,0,0,0,0,0,0,-0.2565,-0.258,-0.2713,-0.2716,-0.2719,-0.2834,-0.2734,-0.2818,-0.2795,-0.2747,-0.2782,-0.2775,-0.2657,-0.265,-0.2676,-0.2678,-0.267,-0.2586,-0.2584,-0.2583,-0.2582,0,0,0,0,0,0,0,-0.2556,-0.2573,-0.2781,-0.2718,-0.2722,-0.2747,-0.2755,-0.275,-0.2711,-0.2751,-0.2748,-0.2794,-0.2653,-0.2679,-0.267,-0.2668,-0.2586,-0.2583,-0.2582,-0.2581,-0.2649,-0.2652,0,0,0,0,0,0,-0.2567,-0.2565,-0.2776,-0.2788,-0.2645,-0.2757,-0.2766,-0.2789,-0.2719,-0.2711,-0.2799,-0.2789,-0.2686,-0.2673,-0.2663,-0.2653,-0.2583,-0.2581,-0.258,-0.2645,-0.2649,-0.2653,0,0,0,0,0,0,-0.256,-0.2584,-0.277,-0.2694,-0.2721,-0.2768,-0.2795,-0.2796,-0.2784,-0.2763,-0.2742,-0.2782,-0.2681,-0.2666,-0.2662,-0.2648,-0.258,-0.2578,-0.2642,-0.2647,-0.2651,-0.2707,0,0,0,0,0,0,-0.2551,-0.2579,-0.2601,-0.2695,-0.2727,-0.2869,-0.2802,-0.2804,-0.2831,-0.2818,-0.2744,-0.2723,-0.2675,-0.2666,-0.2659,-0.2644,-0.2576,-0.2638,-0.2644,-0.265,-0.2701,-0.2713,-0.2724,0,0,0,0,0,-0.2539,-0.2612,-0.26,-0.2627,-0.2753,-0.2874,-0.289,-0.2895,-0.2835,-0.2854,-0.2812,-0.2723,-0.2697,-0.2669,-0.2659,-0.2642,-0.2635,-0.2642,-0.2649,-0.2696,-0.2711,-0.2724,0,0,0,0,0,0,-0.2527,-0.2613,-0.26,-0.2698,-0.277,-0.286,-0.2906,-0.2895,-0.2886,-0.2848,-0.2779,-0.2761,-0.2743,-0.2719,-0.2688,-0.2689,-0.2647,-0.2653,-0.2686,-0.2699,-0.271,-0.2686,-0.2574,0,0,0,0,0,-0.2536,-0.2575,-0.2675,-0.2746,-0.2786,-0.2832,-0.288,-0.288,-0.2902,-0.2889,-0.2843,-0.2802,-0.2784,-0.2758,-0.2744,-0.276,-0.2721,-0.2746,-0.2757,-0.2766,-0.2748,-0.2703,-0.2706,-0.2676,-0.2676,-0.2676,0,0,-0.2546,-0.2607,-0.2626,-0.2742,-0.2789,-0.2857,-0.284,-0.2916,-0.293,-0.2873,-0.2857,-0.2837,-0.2803,-0.2809,-0.2798,-0.2772,-0.2769,-0.2775,-0.2782,-0.2758,-0.271,-0.2712,-0.2714,-0.2681,-0.268,-0.268,0,0,-0.2608,-0.2643,-0.2693,-0.2755,-0.285,-0.2884,-0.2897,-0.2968,-0.2949,-0.2986,-0.2925,-0.2912,-0.29,-0.2867,-0.2849,-0.2926,-0.2831,-0.2915,-0.2937,-0.2896,-0.2895,-0.2895,-0.2894,-0.2892,-0.2917,-0.2917,-0.2917,0,-0.2605,-0.2681,-0.2735,-0.281,-0.2847,-0.2883,-0.2932,-0.2962,-0.3009,-0.2987,-0.2978,-0.2952,-0.2924,-0.29,-0.2932,-0.2939,-0.2914,-0.2877,-0.2903,-0.2901,-0.2899,-0.2898,-0.2895,-0.292,-0.292,-0.292,-0.2919,0,-0.27,-0.2753,-0.2801,-0.2863,-0.2919,-0.2978,-0.3027,-0.3039,-0.3021,-0.3031,-0.3011,-0.3015,-0.2983,-0.2989,-0.2984,-0.2959,-0.2949,-0.2918,-0.2851,-0.2904,-0.2902,-0.2898,-0.2925,-0.2924,-0.2923,-0.2922,0,0,-0.2651,-0.2822,-0.2819,-0.2836,-0.2932,-0.2974,-0.301,-0.3036,-0.3007,-0.3052,-0.3012,-0.3036,-0.3018,-0.3002,-0.2988,-0.2969,-0.297,-0.2945,-0.2941,-0.2914,-0.29,-0.277,-0.2754,-0.2927,-0.2926,-0.2925,-0.2918,0,-0.2669,-0.28,-0.2867,-0.2918,-0.2968,-0.2995,-0.3015,-0.3034,-0.3035,-0.3018,-0.3016,-0.2995,-0.3028,-0.3006,-0.3001,-0.2963,-0.2955,-0.2976,-0.2878,-0.2876,-0.2726,-0.2742,-0.2444,-0.2399,-0.2914,-0.2913,-0.2912,0,-0.2685,-0.2768,-0.2849,-0.2903,-0.2917,-0.2942,-0.2915,-0.2948,-0.2954,-0.2952,-0.2953,-0.2951,-0.2954,-0.2963,-0.2943,-0.295,-0.2934,-0.2916,-0.2914,-0.2756,-0.2735,-0.2424,-0.2372,-0.2905,-0.2906,-0.2906,-0.2907,0,-0.2582,-0.271,-0.2754,-0.2785,-0.2886,-0.2869,-0.2889,-0.2905,-0.2896,-0.2902,-0.2885,-0.29,-0.2881,-0.2881,-0.2892,-0.2904,-0.2848,-0.2853,-0.2729,-0.2723,-0.2427,-0.2394,-0.2815,-0.2815,-0.2815,-0.2815,-0.2815,0,-0.255,-0.256,-0.2703,-0.2724,-0.2705,-0.2795,-0.2754,-0.2777,-0.2798,-0.2763,-0.2836,-0.2793,-0.285,-0.2837,-0.2862,-0.2782,-0.2828,-0.2719,-0.2691,-0.2448,-0.2418,-0.2815,-0.2815,-0.2815,-0.2815,-0.2815,-0.2815,0,-0.2411,-0.2535,-0.2565,-0.2658,-0.2669,-0.2641,-0.2676,-0.265,-0.27,-0.2657,-0.2659,-0.2698,-0.2678,-0.2737,-0.272,-0.2703,-0.2667,-0.2625,-0.2363,-0.2302,-0.2591,-0.2596,-0.2485,-0.248,-0.2476,-0.2472,-0.2469,0,-0.2351,-0.237,-0.2467,-0.2466,-0.2495,-0.2495,-0.2487,-0.2571,-0.2552,-0.2573,-0.2526,-0.2526,-0.2476,-0.2443,-0.2386,-0.2376,-0.2536,-0.2114,-0.207,-0.2562,-0.2548,-0.2559,-0.2569,-0.1739,-0.173,-0.1723,-0.1717,0,-0.2171,-0.2211,-0.2246,-0.2292,-0.229,-0.2299,-0.2302,-0.2297,-0.2373,-0.2337,-0.2277,-0.2246,-0.2174,-0.1988,-0.198,-0.1946,-0.2097,-0.1965,-0.2493,-0.1867,-0.1855,-0.1844,-0.1878,-0.1653,-0.166,-0.1664,-0.1668,-0.167,-0.197,-0.1967,-0.2044,-0.2058,-0.2085,-0.2098,-0.2053,-0.2082,-0.2052,-0.2011,-0.2059,-0.1924,-0.1796,-0.1616,-0.1543,-0.1497,-0.1663,-0.1589,-0.1612,-0.1643,-0.1555,-0.1535,-0.1261,-0.1265,-0.1268,-0.1271,-0.1274,0,-0.1727,-0.1778,-0.1797,-0.1857,-0.1852,-0.1919,-0.1909,-0.1823,-0.1744,-0.1799,-0.1753,-0.1427,-0.1247,-0.1202,-0.0979,-0.0942,-0.0961,-0.0935,-0.0932,-0.099,-0.1043,-0.0929,-0.0467,-0.0466,-0.0465,-0.0465,0,0,-0.1607,-0.1594,-0.1664,-0.1627,-0.1648,-0.1571,-0.1539,-0.144,-0.1423,-0.1348,-0.1283,-0.1338,-0.1179,-0.0863,-0.074,-0.0599,-0.0844,-0.0567,-0.1188,-0.1246,-0.1301,-0.1352,-0.1232,0,0,0,0,0]},{"header":{"parameterUnit":"m.s-1","parameterCategory":2,"la1":30.2991,"la2":30.254,"lo1":-89.0895,"lo2":-89.0444,"dy":0.0017,"dx":0.0017,"nx":28,"ny":28,"refTime":"2025-08-04T09:00:00:Z","depth":"2","parameterNumber":3,"parameterNumberName":"V-component_of_CURRENTS"},"data":[0,0,0,0,0,0,0,0,0,0,0,0,0,0,0,0,0,0,0,0,0,0,0,0,0,0,0,0,0,0,0,0,0,0,0,0,0,0,0,0,0,0,0,0,0,0,0,0,0,0,0,0,0,0,0,0,0,0,-0.0038,-0.0036,0,0.0109,0.011,0.0112,0.0101,0.0099,0.0097,0.0095,0.0161,0.0164,0.0168,0,0,0,0,0,0,0,0,0,0,0,0,0,-0.0187,-0.0185,-0.0038,-0.0036,-0.0034,0.0108,0.011,0.0112,0.0101,0.0099,0.0096,0.0094,0.016,0.0164,0.0168,0,0,0,0,0,0,0,0,0,0,0,0,0,-0.0092,-0.0185,-0.0039,-0.0021,-0.0018,0.0108,0.011,0.0112,0.0102,0.0099,0.0096,0.0093,0.0158,0.0164,0.0169,0.0262,0,0,0.0185,0.0188,0,0,0,0,0,0,0,0,-0.0098,-0.0087,-0.0025,-0.0022,-0.0018,0.0085,0.0082,0.0159,0.0103,0.0054,0.0095,0.0092,0.0132,0.0139,0.0171,0.0265,0.0268,0.0186,0.0189,0.0191,0.0193,0,0,0,0,0,0,0,-0.0104,-0.0092,0.0018,-0.0023,-0.0018,0.0029,0.0037,0.0098,0.0105,0.0058,0.0058,0.0079,0.0132,0.0166,0.0173,0.0269,0.0186,0.019,0.0194,0.0196,0.0431,0.0434,0,0,0,0,0,0,-0.0122,-0.0099,0.0013,0.0022,-0.0063,0.0033,0.0043,0.0053,0.0106,0.0112,0.0082,0.0078,0.0159,0.0166,0.0175,0.0225,0.0191,0.0196,0.02,0.0428,0.0432,0.0435,0,0,0,0,0,0,-0.0125,-0.0113,0.0007,-0.0033,-0.0014,0.0038,0.0051,0.0058,0.0065,0.0125,0.0128,0.0077,0.0157,0.0167,0.0236,0.0229,0.0199,0.0204,0.0424,0.0429,0.0433,0.0364,0,0,0,0,0,0,-0.0131,-0.0116,-0.0109,-0.0034,-0.0013,0.0066,0.0054,0.0063,0.0085,0.0081,0.0124,0.0128,0.0155,0.0228,0.0242,0.0236,0.0208,0.0421,0.0426,0.0432,0.0363,0.0366,0.0369,0,0,0,0,0,-0.0137,-0.0117,-0.011,-0.0096,-0.0007,0.0067,0.0083,0.0109,0.0087,0.0101,0.0144,0.0125,0.0273,0.0236,0.0251,0.0245,0.0418,0.0425,0.0431,0.0362,0.0365,0.0369,0,0,0,0,0,0,-0.0179,-0.0114,-0.0105,-0.0068,-0.0012,0.0065,0.0088,0.0102,0.0149,0.0131,0.0172,0.0183,0.0235,0.0278,0.0235,0.034,0.034,0.035,0.0282,0.0286,0.0289,0.0285,0.0213,0,0,0,0,0,-0.0182,-0.0155,-0.0086,-0.0056,-0.0035,0.0022,0.0054,0.0067,0.0121,0.0135,0.0174,0.0227,0.0287,0.031,0.0371,0.0436,0.0485,0.0448,0.0451,0.0452,0.0466,0.0598,0.0613,0.0457,0.0457,0.0457,0,0,-0.0188,-0.0148,-0.0133,-0.0063,-0.0023,0.0019,0.0031,0.0068,0.0101,0.0139,0.019,0.0234,0.031,0.0375,0.0402,0.0398,0.051,0.0461,0.046,0.0474,0.0607,0.0622,0.0635,0.0462,0.0461,0.046,0,0,-0.0191,-0.0157,-0.0143,-0.0096,-0.0039,0.0007,0.0009,0.0075,0.0097,0.017,0.0198,0.0264,0.0346,0.041,0.0451,0.0524,0.0521,0.0513,0.0517,0.0644,0.0657,0.0669,0.0677,0.0691,0.0513,0.0513,0.0513,0,-0.021,-0.0175,-0.0123,-0.0095,-0.0058,-0.0008,0.0015,0.0069,0.0149,0.0184,0.0173,0.0337,0.0378,0.0485,0.049,0.0525,0.0552,0.0478,0.0643,0.0657,0.067,0.0677,0.0693,0.0511,0.0511,0.0511,0.0512,0,-0.0198,-0.0172,-0.0157,-0.0106,-0.0057,-0.0026,0.0048,0.0089,0.0118,0.0177,0.0277,0.037,0.0461,0.048,0.0494,0.0604,0.057,0.0622,0.0615,0.0681,0.0684,0.0702,0.0507,0.0508,0.0509,0.0509,0,0,-0.0244,-0.017,-0.0166,-0.0148,-0.0067,-0.0027,0.0035,0.0119,0.0162,0.0248,0.0327,0.0435,0.0467,0.052,0.0559,0.066,0.0736,0.0655,0.0662,0.0627,0.092,0.087,0.0884,0.0802,0.0807,0.0811,0.0854,0,-0.0258,-0.0229,-0.0172,-0.013,-0.011,-0.0033,0.0029,0.011,0.0189,0.0283,0.0394,0.0476,0.0489,0.051,0.0621,0.0718,0.0792,0.0714,0.0895,0.0899,0.0821,0.0909,0.084,0.0873,0.0871,0.0874,0.0876,0,-0.0264,-0.0245,-0.0226,-0.0151,-0.0134,-0.0101,0.0002,0.0066,0.0212,0.0269,0.0384,0.0464,0.0594,0.0611,0.0821,0.0756,0.0824,0.0905,0.0911,0.0911,0.0887,0.083,0.0906,0.0907,0.0904,0.0902,0.09,0,-0.0326,-0.0271,-0.0264,-0.0239,-0.0151,-0.0133,-0.0086,0.0043,0.0112,0.0248,0.0308,0.0485,0.0549,0.0723,0.0819,0.0832,0.1034,0.1094,0.1114,0.1105,0.1113,0.1099,0.1269,0.1269,0.1268,0.1268,0.1268,0,-0.0353,-0.0338,-0.0306,-0.0301,-0.0285,-0.0205,-0.0153,-0.0079,0.0055,0.0138,0.0273,0.0363,0.0584,0.0707,0.0831,0.0984,0.1042,0.1129,0.1151,0.1078,0.1062,0.1164,0.1152,0.127,0.1269,0.1269,0.1269,0,-0.0402,-0.0378,-0.037,-0.0327,-0.0318,-0.0315,-0.0226,-0.016,-0.0059,0.0056,0.0088,0.0274,0.0401,0.0578,0.0818,0.0966,0.1142,0.1168,0.0991,0.0995,0.1122,0.1106,0.127,0.1269,0.1269,0.1268,0.1268,0,-0.0413,-0.0424,-0.042,-0.0428,-0.0417,-0.0398,-0.0358,-0.0244,-0.0158,-0.0002,0.0064,0.0179,0.0278,0.0561,0.0812,0.1022,0.1032,0.1093,0.1171,0.1137,0.1141,0.1125,0.111,0.1112,0.1111,0.1109,0.1108,0,-0.0441,-0.0456,-0.0462,-0.0499,-0.0491,-0.0449,-0.0391,-0.0342,-0.0194,-0.0126,-0.0027,0.0044,0.0293,0.0516,0.0766,0.0894,0.1072,0.1076,0.1148,0.1117,0.0993,0.0994,0.0985,0.1097,0.1098,0.1099,0.1099,0.11,-0.0462,-0.0499,-0.0531,-0.0559,-0.0543,-0.0498,-0.0473,-0.0386,-0.0313,-0.0154,-0.0088,0.0074,0.0305,0.0692,0.0792,0.0925,0.1023,0.1104,0.1107,0.1112,0.1082,0.0965,0.1049,0.105,0.1051,0.1052,0.1052,0,-0.0493,-0.0538,-0.0575,-0.0598,-0.0592,-0.0564,-0.0474,-0.043,-0.0382,-0.0173,-0.0079,0.015,0.0408,0.0587,0.0826,0.0993,0.0982,0.0943,0.0924,0.0936,0.0947,0.0907,0.0829,0.0828,0.0827,0.0827,0,0,-0.0509,-0.058,-0.0619,-0.0645,-0.0646,-0.0623,-0.0585,-0.0521,-0.0368,-0.0229,-0.0034,0.0305,0.0528,0.0656,0.0754,0.0795,0.0821,0.0762,0.0937,0.0913,0.0921,0.1042,0.0995,0,0,0,0,0]}],[{"header":{"parameterUnit":"m.s-1","parameterCategory":2,"la1":30.2991,"la2":30.254,"lo1":-89.0895,"lo2":-89.0444,"dy":0.0017,"dx":0.0017,"nx":28,"ny":28,"refTime":"2025-08-04T09:00:00:Z","depth":"4","parameterNumber":2,"parameterNumberName":"U-component_of_CURRENTS"},"data":[0,0,0,0,0,0,0,0,0,0,0,0,0,0,0,0,0,0,0,0,0,0,0,0,0,0,0,0,0,0,0,0,0,0,0,0,0,0,0,0,0,0,0,0,0,0,0,0,0,0,0,0,0,0,0,0,0,0,-0.1183,-0.1182,0,-0.1194,-0.1195,-0.1196,-0.1224,-0.1224,-0.1224,-0.1224,-0.1359,-0.1363,-0.1366,0,0,0,0,0,0,0,0,0,0,0,0,0,-0.1136,-0.1138,-0.1183,-0.1182,-0.1182,-0.1194,-0.1195,-0.1196,-0.1224,-0.1224,-0.1224,-0.1224,-0.1358,-0.1362,-0.1367,0,0,0,0,0,0,0,0,0,0,0,0,0,-0.116,-0.1138,-0.1183,-0.1192,-0.1192,-0.1194,-0.1195,-0.1196,-0.1224,-0.1224,-0.1224,-0.1224,-0.1356,-0.1362,-0.1367,-0.1403,0,0,-0.1384,-0.1386,0,0,0,0,0,0,0,0,-0.1158,-0.1162,-0.1191,-0.1191,-0.1192,-0.1201,-0.1227,-0.1269,-0.1224,-0.122,-0.1224,-0.1224,-0.1313,-0.1322,-0.1333,-0.1409,-0.1415,-0.1384,-0.1388,-0.139,-0.1392,0,0,0,0,0,0,0,-0.1157,-0.1162,-0.1195,-0.1191,-0.1191,-0.1178,-0.1183,-0.1235,-0.1275,-0.122,-0.122,-0.121,-0.1315,-0.1328,-0.1337,-0.1417,-0.1384,-0.1389,-0.1393,-0.1395,-0.1624,-0.1627,0,0,0,0,0,0,-0.1144,-0.1161,-0.1194,-0.1194,-0.1166,-0.1179,-0.1184,-0.1204,-0.1272,-0.1279,-0.121,-0.1211,-0.1318,-0.133,-0.1342,-0.1462,-0.139,-0.1395,-0.1398,-0.1621,-0.1625,-0.1628,0,0,0,0,0,0,-0.1144,-0.1148,-0.1194,-0.117,-0.1174,-0.1179,-0.1202,-0.1204,-0.1235,-0.1261,-0.1272,-0.1239,-0.1319,-0.1334,-0.1398,-0.1465,-0.1398,-0.1403,-0.1618,-0.1622,-0.1626,-0.1656,0,0,0,0,0,0,-0.1143,-0.1149,-0.1177,-0.117,-0.1174,-0.121,-0.1201,-0.1204,-0.1224,-0.1226,-0.1289,-0.13,-0.132,-0.139,-0.1404,-0.1471,-0.1407,-0.1615,-0.162,-0.1625,-0.1651,-0.166,-0.1668,0,0,0,0,0,-0.1142,-0.1168,-0.1179,-0.1183,-0.1208,-0.121,-0.1213,-0.1219,-0.1225,-0.1247,-0.1282,-0.1299,-0.1434,-0.1395,-0.1411,-0.1482,-0.1612,-0.1619,-0.1625,-0.1647,-0.1659,-0.1668,0,0,0,0,0,0,-0.115,-0.1172,-0.1184,-0.1215,-0.122,-0.1212,-0.1228,-0.1233,-0.1277,-0.1286,-0.1319,-0.1333,-0.1422,-0.1446,-0.1403,-0.1567,-0.1534,-0.1544,-0.1547,-0.1558,-0.1566,-0.1527,-0.1412,0,0,0,0,0,-0.1167,-0.1203,-0.1206,-0.123,-0.1238,-0.1241,-0.1248,-0.1251,-0.1272,-0.1291,-0.1335,-0.1393,-0.1459,-0.1499,-0.1554,-0.1634,-0.1603,-0.1697,-0.1706,-0.1712,-0.1694,-0.1699,-0.1704,-0.1649,-0.1649,-0.1648,0,0,-0.1168,-0.1189,-0.1205,-0.1236,-0.1244,-0.1247,-0.1249,-0.1261,-0.128,-0.1302,-0.1367,-0.1423,-0.1486,-0.1574,-0.1619,-0.1603,-0.1713,-0.1721,-0.1726,-0.1703,-0.1706,-0.171,-0.1714,-0.1653,-0.1652,-0.1651,0,0,-0.1174,-0.1218,-0.1244,-0.125,-0.1264,-0.1267,-0.1275,-0.1291,-0.1327,-0.1381,-0.1415,-0.148,-0.1591,-0.163,-0.1668,-0.1756,-0.1755,-0.1824,-0.1839,-0.1845,-0.1848,-0.185,-0.1802,-0.18,-0.1831,-0.1832,-0.1832,0,-0.1172,-0.1209,-0.1246,-0.1257,-0.1254,-0.1277,-0.1276,-0.1316,-0.1355,-0.1384,-0.1409,-0.1551,-0.1603,-0.169,-0.1739,-0.177,-0.1769,-0.179,-0.1851,-0.1853,-0.1854,-0.1804,-0.1801,-0.1834,-0.1833,-0.1833,-0.1833,0,-0.1179,-0.1211,-0.1221,-0.1252,-0.1261,-0.1264,-0.1298,-0.1338,-0.1385,-0.1417,-0.1523,-0.1593,-0.1673,-0.1729,-0.1768,-0.1844,-0.1835,-0.1853,-0.1809,-0.186,-0.1806,-0.1802,-0.1837,-0.1836,-0.1835,-0.1835,0,0,-0.1139,-0.1216,-0.1211,-0.1231,-0.1255,-0.1257,-0.1301,-0.1341,-0.1376,-0.1459,-0.1518,-0.1643,-0.1696,-0.1744,-0.1818,-0.1838,-0.1854,-0.1875,-0.1874,-0.1798,-0.1848,-0.1732,-0.1716,-0.1906,-0.1906,-0.1906,-0.1797,0,-0.1123,-0.1156,-0.1191,-0.1202,-0.1215,-0.1247,-0.1279,-0.1321,-0.1393,-0.1468,-0.1558,-0.1658,-0.1706,-0.1781,-0.1809,-0.1861,-0.1852,-0.188,-0.1835,-0.1831,-0.1698,-0.171,-0.1907,-0.1794,-0.1793,-0.1792,-0.1792,0,-0.1099,-0.1125,-0.1148,-0.1192,-0.1198,-0.1211,-0.1256,-0.13,-0.1399,-0.1459,-0.1557,-0.1653,-0.174,-0.1776,-0.1813,-0.1848,-0.1848,-0.1853,-0.1849,-0.1721,-0.1708,-0.1741,-0.1784,-0.1785,-0.1785,-0.1786,-0.1786,0,-0.1048,-0.1088,-0.1115,-0.1122,-0.1172,-0.1193,-0.1227,-0.1298,-0.1339,-0.1483,-0.1518,-0.1641,-0.1703,-0.1745,-0.179,-0.1825,-0.1789,-0.1823,-0.1685,-0.1674,-0.1796,-0.1794,-0.18,-0.18,-0.18,-0.1801,-0.1801,0,-0.1009,-0.102,-0.1102,-0.1109,-0.112,-0.1174,-0.1211,-0.1264,-0.1346,-0.1385,-0.1533,-0.1569,-0.1708,-0.173,-0.1767,-0.1697,-0.1757,-0.166,-0.164,-0.1811,-0.1814,-0.179,-0.1791,-0.1797,-0.1797,-0.1798,-0.1799,0,-0.0945,-0.1004,-0.1031,-0.1091,-0.1109,-0.1122,-0.1181,-0.1202,-0.129,-0.1348,-0.14,-0.1507,-0.1526,-0.1596,-0.1634,-0.1619,-0.1599,-0.155,-0.1682,-0.1676,-0.1479,-0.1483,-0.1376,-0.1371,-0.1367,-0.1364,-0.1361,0,-0.0918,-0.0938,-0.1008,-0.101,-0.1041,-0.1076,-0.1083,-0.1169,-0.1202,-0.1287,-0.1301,-0.1353,-0.1419,-0.1335,-0.1434,-0.1427,-0.1431,-0.1406,-0.1485,-0.1445,-0.1437,-0.1448,-0.1457,-0.1354,-0.1353,-0.1352,-0.1351,0,-0.0854,-0.09,-0.0925,-0.0937,-0.0952,-0.0966,-0.1012,-0.1019,-0.1116,-0.1179,-0.1182,-0.1215,-0.1195,-0.1243,-0.1231,-0.1247,-0.1436,-0.1363,-0.1373,-0.1446,-0.1416,-0.1416,-0.143,-0.1336,-0.1338,-0.1339,-0.134,0,-0.08,-0.0804,-0.0853,-0.0844,-0.0859,-0.0865,-0.0904,-0.0926,-0.0959,-0.1069,-0.1052,-0.11,-0.1162,-0.114,-0.1144,-0.1138,-0.1143,-0.1157,-0.1178,-0.1195,-0.1198,-0.1138,-0.0929,0,0,0,0,0,-0.0741,-0.0742,-0.0745,-0.0749,-0.0761,-0.0779,-0.0845,-0.0894,-0.0983,-0.0946,-0.1005,-0.0995,-0.0992,-0.1019,-0.0978,-0.1074,-0.1157,-0.1026,-0.1187,-0.1255,-0.1272,-0.1298,0,0,0,0,0,0,-0.0695,-0.0713,-0.0723,-0.067,-0.0653,-0.067,-0.0718,-0.0786,-0.079,-0.0877,-0.0869,-0.093,-0.0931,-0.0976,-0.0946,-0.0957,-0.1044,-0.1055,-0.1053,-0.1245,-0.126,-0.1274,-0.1307,0,0,0,0,0]},{"header":{"parameterUnit":"m.s-1","parameterCategory":2,"la1":30.2991,"la2":30.254,"lo1":-89.0895,"lo2":-89.0444,"dy":0.0017,"dx":0.0017,"nx":28,"ny":28,"refTime":"2025-08-04T09:00:00:Z","depth":"4","parameterNumber":3,"parameterNumberName":"V-component_of_CURRENTS"},"data":[0,0,0,0,0,0,0,0,0,0,0,0,0,0,0,0,0,0,0,0,0,0,0,0,0,0,0,0,0,0,0,0,0,0,0,0,0,0,0,0,0,0,0,0,0,0,0,0,0,0,0,0,0,0,0,0,0,0,-0.0248,-0.0248,0,-0.0252,-0.0252,-0.0252,-0.0216,-0.0215,-0.0214,-0.0213,-0.0137,-0.0136,-0.0135,0,0,0,0,0,0,0,0,0,0,0,0,0,-0.0233,-0.0234,-0.0248,-0.0248,-0.0248,-0.0252,-0.0252,-0.0252,-0.0216,-0.0215,-0.0213,-0.0212,-0.0137,-0.0136,-0.0135,0,0,0,0,0,0,0,0,0,0,0,0,0,-0.0239,-0.0234,-0.0248,-0.023,-0.0229,-0.0252,-0.0252,-0.0252,-0.0216,-0.0215,-0.0213,-0.0212,-0.0137,-0.0136,-0.0134,-0.0155,0,0,-0.013,-0.0129,0,0,0,0,0,0,0,0,-0.0239,-0.0239,-0.0233,-0.0232,-0.023,-0.0231,-0.0219,-0.0216,-0.0216,-0.0221,-0.0213,-0.0211,-0.0162,-0.0158,-0.0164,-0.0152,-0.0149,-0.0129,-0.0128,-0.0128,-0.0127,0,0,0,0,0,0,0,-0.0238,-0.0239,-0.025,-0.0233,-0.0231,-0.023,-0.0229,-0.0218,-0.0199,-0.0221,-0.0218,-0.0218,-0.016,-0.0166,-0.0162,-0.0147,-0.0129,-0.0128,-0.0127,-0.0126,-0.0135,-0.0136,0,0,0,0,0,0,-0.0238,-0.0239,-0.025,-0.025,-0.023,-0.0232,-0.023,-0.0233,-0.0201,-0.0195,-0.022,-0.0217,-0.0169,-0.0164,-0.0159,-0.0165,-0.0128,-0.0126,-0.0125,-0.0133,-0.0135,-0.0136,0,0,0,0,0,0,-0.0238,-0.0239,-0.0249,-0.0244,-0.0245,-0.0233,-0.0236,-0.0234,-0.0236,-0.0201,-0.0193,-0.0225,-0.0168,-0.0161,-0.0162,-0.0162,-0.0126,-0.0124,-0.0132,-0.0134,-0.0135,-0.0189,0,0,0,0,0,0,-0.0237,-0.0239,-0.0245,-0.0244,-0.0245,-0.0276,-0.0238,-0.0235,-0.0239,-0.0235,-0.0203,-0.0194,-0.0166,-0.0165,-0.0161,-0.0159,-0.0123,-0.0131,-0.0133,-0.0135,-0.0185,-0.0192,-0.0198,0,0,0,0,0,-0.0237,-0.0251,-0.0246,-0.0247,-0.0253,-0.0278,-0.028,-0.0265,-0.0241,-0.0259,-0.0235,-0.0195,-0.0175,-0.0166,-0.016,-0.0158,-0.0129,-0.0132,-0.0135,-0.0183,-0.0191,-0.0198,0,0,0,0,0,0,-0.0251,-0.0249,-0.0243,-0.0257,-0.0272,-0.0272,-0.0282,-0.0273,-0.0271,-0.026,-0.0219,-0.0211,-0.0209,-0.0187,-0.0177,-0.0169,-0.0142,-0.0144,-0.0181,-0.0188,-0.0194,-0.0191,-0.0122,0,0,0,0,0,-0.0258,-0.0266,-0.0272,-0.0286,-0.0292,-0.0289,-0.0296,-0.0292,-0.0288,-0.0285,-0.0265,-0.024,-0.0219,-0.0206,-0.0194,-0.0196,-0.0131,-0.019,-0.0196,-0.0201,-0.0197,-0.0114,-0.011,-0.0145,-0.0145,-0.0145,0,0,-0.027,-0.0268,-0.0275,-0.029,-0.0294,-0.0325,-0.0289,-0.0309,-0.0333,-0.0277,-0.0299,-0.0266,-0.0227,-0.0227,-0.0223,-0.0205,-0.0156,-0.0205,-0.0209,-0.0202,-0.0116,-0.0112,-0.0108,-0.0146,-0.0146,-0.0146,0,0,-0.03,-0.0295,-0.0314,-0.0333,-0.0347,-0.0353,-0.0362,-0.0372,-0.0372,-0.0398,-0.0349,-0.0328,-0.0315,-0.0281,-0.0259,-0.0297,-0.0195,-0.028,-0.0301,-0.0221,-0.0216,-0.0211,-0.011,-0.0096,-0.0278,-0.0278,-0.0278,0,-0.0313,-0.0337,-0.0328,-0.0357,-0.0376,-0.0369,-0.0407,-0.0418,-0.0431,-0.0422,-0.0416,-0.0367,-0.0343,-0.0305,-0.0313,-0.0309,-0.0227,-0.0273,-0.0225,-0.0219,-0.0213,-0.0111,-0.0094,-0.0281,-0.0281,-0.028,-0.028,0,-0.0363,-0.0386,-0.0401,-0.0433,-0.0457,-0.049,-0.0505,-0.0527,-0.0523,-0.051,-0.0488,-0.0455,-0.0413,-0.04,-0.0367,-0.0308,-0.0251,-0.0243,-0.02,-0.0212,-0.0104,-0.0086,-0.0285,-0.0284,-0.0283,-0.0282,0,0,-0.0378,-0.0426,-0.0432,-0.0456,-0.0499,-0.0522,-0.0568,-0.0587,-0.059,-0.0588,-0.0573,-0.0536,-0.0481,-0.0454,-0.0397,-0.0328,-0.0221,-0.0261,-0.0256,-0.0149,0.0,-0.0009,0.0011,-0.0183,-0.018,-0.0179,0.0066,0,-0.0419,-0.0478,-0.0498,-0.0565,-0.0596,-0.0615,-0.0652,-0.0664,-0.0662,-0.0651,-0.0587,-0.0558,-0.0509,-0.0477,-0.0399,-0.0263,-0.0177,-0.0286,-0.0014,-0.0006,-0.0002,0.0029,-0.0171,0.008,0.0084,0.0087,0.0089,0,-0.046,-0.0493,-0.0561,-0.0612,-0.0626,-0.0671,-0.0708,-0.0738,-0.0717,-0.071,-0.0657,-0.0597,-0.0493,-0.0469,-0.0224,-0.028,-0.0145,-0.0043,-0.0031,-0.0008,0.0018,0.0091,0.0123,0.012,0.0118,0.0116,0.0113,0,-0.0462,-0.0533,-0.0583,-0.0607,-0.067,-0.0702,-0.0734,-0.0744,-0.0751,-0.0733,-0.0715,-0.0595,-0.0516,-0.0346,-0.0136,-0.016,0.0145,0.0129,0.0252,0.0254,0.0215,0.0207,0.0295,0.0295,0.0294,0.0294,0.0293,0,-0.0489,-0.0531,-0.0587,-0.0618,-0.0675,-0.0708,-0.0748,-0.0778,-0.0776,-0.0748,-0.0721,-0.0652,-0.0474,-0.0287,-0.0114,0.0145,0.0172,0.0267,0.0316,0.0186,0.0173,0.023,0.0219,0.0303,0.0301,0.0299,0.0298,0,-0.0489,-0.0527,-0.0588,-0.0656,-0.068,-0.0718,-0.0771,-0.0781,-0.0792,-0.076,-0.0749,-0.0643,-0.0404,-0.0209,0.0087,0.0181,0.0405,0.0486,0.0366,0.0401,0.0459,0.0442,0.0643,0.0644,0.0646,0.0647,0.0648,0,-0.0496,-0.0523,-0.0608,-0.0644,-0.0683,-0.0734,-0.0761,-0.0794,-0.0791,-0.0724,-0.0687,-0.0498,-0.0394,0.0039,0.0202,0.0514,0.0533,0.0626,0.0502,0.0467,0.0495,0.0476,0.0458,0.065,0.0651,0.0651,0.0651,0,-0.0509,-0.0536,-0.0585,-0.0653,-0.07,-0.0742,-0.0774,-0.0763,-0.0755,-0.0754,-0.058,-0.0415,-0.0154,0.0092,0.0326,0.0537,0.0541,0.0642,0.0638,0.0522,0.0479,0.0501,0.0481,0.0656,0.0656,0.0655,0.0655,0,-0.0513,-0.0547,-0.0603,-0.066,-0.0714,-0.0733,-0.0752,-0.0701,-0.0685,-0.06,-0.0514,-0.0292,-0.0158,0.0112,0.034,0.0525,0.0539,0.0545,0.0547,0.0543,0.0401,0.0324,0.0518,0,0,0,0,0,-0.0518,-0.055,-0.0604,-0.0671,-0.0715,-0.0746,-0.0751,-0.075,-0.0711,-0.057,-0.0543,-0.0296,0.0007,0.0128,0.0325,0.0323,0.0536,0.0546,0.0536,0.0684,0.0678,0.0522,0,0,0,0,0,0,-0.0526,-0.0576,-0.06,-0.0654,-0.0694,-0.074,-0.0739,-0.0716,-0.0625,-0.0558,-0.0369,-0.0296,0.0022,-0.0084,0.0319,0.0367,0.0371,0.0688,0.0691,0.0688,0.0682,0.0678,0.0514,0,0,0,0,0]}]]